Theta_e
352 358 365 362 360 360 359 358 359 360 359 359 360 361 360 359 358 359 358 358 358 356 355 356 356 356 356 356 355 355 355 354 354 352 349 348 348 349 349 352 350 348 348
355 361 363 362 361 360 359 358 359 359 359 358 358 359 359 359 359 358 358 358 358 356 356 357 358 357 356 355 353 353 353 352 351 350 352 351 348 347 349 353 348 347 348
354 359 360 362 361 361 360 358 358 359 360 360 358 357 358 358 358 358 358 358 357 356 357 358 357 355 353 353 353 352 351 350 349 349 350 345 348 352 348 350 348 348 348
355 358 357 362 361 361 359 358 357 358 360 360 359 358 357 357 357 356 358 358 356 355 355 355 354 352 351 351 350 348 347 347 347 348 341 339 342 353 353 349 349 348 348
355 357 357 361 361 360 359 358 357 357 359 360 358 357 356 356 357 357 358 358 355 354 352 351 351 350 349 348 347 348 348 347 347 345 333 330 329 339 358 353 350 349 348
354 355 359 360 360 360 359 359 358 357 359 360 358 357 356 355 355 355 356 356 355 353 352 351 350 349 347 347 349 349 350 348 348 336 332 331 328 346 356 356 351 350 352
352 355 357 359 360 360 360 359 358 357 358 360 359 357 355 355 354 355 355 354 352 351 350 349 349 349 349 349 349 350 350 347 339 334 332 329 325 341 358 358 356 355 354
351 354 355 359 359 358 359 358 358 356 356 359 359 357 356 355 355 355 354 353 352 352 351 350 351 350 349 349 350 350 350 347 341 336 335 332 335 342 349 358 357 357 357
352 352 355 355 356 359 358 358 357 357 356 357 357 357 356 356 356 354 353 352 352 352 351 351 351 351 350 349 350 349 350 348 340 337 337 334 340 343 347 355 358 357 357
350 351 352 354 353 352 354 358 358 357 356 356 357 356 355 356 354 354 351 351 351 351 350 350 350 350 349 349 349 350 351 350 340 338 337 335 344 346 348 355 358 357 355
347 349 350 352 352 351 351 354 357 356 355 356 355 356 352 345 345 347 349 350 353 353 352 352 351 350 350 350 351 351 352 342 339 338 336 342 347 349 352 354 359 359 357
342 345 348 349 350 350 353 351 348 349 348 347 348 347 343 341 339 345 348 351 354 354 354 354 353 353 351 342 340 343 336 335 336 338 338 348 350 354 359 356 357 358 357
341 344 346 347 348 348 349 350 346 343 344 344 344 343 339 339 336 339 341 340 342 348 346 346 343 342 340 338 338 335 334 335 336 338 340 349 351 355 359 358 356 358 353
338 342 344 345 345 344 346 346 343 343 341 340 340 341 337 335 334 333 335 338 339 341 341 341 339 338 336 337 337 336 337 336 336 338 340 350 352 355 357 359 359 358 347
334 338 340 340 341 337 341 338 337 337 338 337 337 338 337 333 332 335 340 339 338 339 338 337 337 337 335 338 340 337 333 336 343 344 341 351 351 353 355 358 358 357 355
331 332 335 335 335 337 335 334 334 333 334 334 335 336 338 336 336 341 341 339 338 339 339 338 337 341 341 341 340 338 338 340 344 342 342 341 347 348 350 353 355 357 354
329 331 332 333 335 334 329 332 333 334 336 335 337 340 341 342 343 344 341 340 347 347 348 348 346 342 341 341 339 340 341 343 341 340 340 338 337 342 345 349 353 354 356
333 333 335 336 337 337 334 335 338 340 339 339 341 343 347 346 347 342 346 348 347 347 346 342 339 335 331 329 327 337 336 335 336 328 325 331 331 331 334 344 342 348 352
338 338 338 339 337 338 339 339 341 343 342 342 343 345 348 349 348 348 348 346 343 338 338 333 332 328 320 318 321 328 320 327 323 315 320 325 323 323 325 332 333 336 339
336 335 335 337 344 343 344 344 343 342 343 344 346 347 350 351 352 348 344 340 330 322 320 322 318 323 317 314 321 318 315 325 311 308 316 319 315 317 318 322 321 323 330
335 335 335 335 332 334 341 341 338 338 346 347 349 350 350 349 347 339 330 327 324 319 317 315 314 314 315 315 312 310 315 316 307 307 311 310 312 314 315 315 315 318 321
333 334 336 336 334 334 335 341 341 345 344 344 343 340 339 336 335 328 325 322 320 316 313 312 311 310 313 313 307 306 304 306 307 307 309 310 309 311 311 311 312 314 318
330 331 333 336 333 334 335 334 339 340 336 333 331 330 330 332 328 324 322 321 318 316 311 310 311 313 309 310 311 304 298 298 303 306 308 308 307 307 307 309 311 312 315
330 332 333 334 334 335 335 336 335 338 331 331 330 329 329 331 330 327 323 320 317 315 313 312 313 312 310 305 308 312 308 306 300 299 304 306 306 306 305 307 307 308 314
329 328 329 330 332 334 333 338 337 336 331 329 328 326 326 327 327 325 321 318 317 315 314 311 310 311 309 305 307 307 304 303 303 301 298 302 302 304 305 305 305 306 311
328 327 327 327 328 334 332 338 338 331 327 324 324 324 324 324 322 320 319 317 316 315 314 313 311 310 307 307 307 305 303 302 301 299 297 300 299 301 304 304 306 305 308
Wind_Speed
9 12 16 14 16 17 18 19 19 18 18 18 18 19 18 17 17 17 16 15 13 12 13 12 11 10 10 10 10 9 9 8 7 7 6 6 6 4 3 8 7 5 8
17 13 16 15 15 17 18 17 17 17 17 17 17 17 16 16 16 16 14 13 13 13 11 11 10 9 7 7 7 6 5 5 4 2 1 2 4 4 4 8 7 5 8
19 17 14 16 16 18 17 16 16 16 15 15 15 15 16 16 15 15 13 12 12 11 9 8 8 7 5 4 3 3 3 2 2 3 4 3 4 8 8 7 7 9 8
18 16 14 17 17 19 18 16 16 15 15 14 13 13 13 13 13 13 12 11 11 10 8 6 5 4 2 2 3 4 4 5 5 5 3 4 5 9 11 10 10 10 10
15 16 16 19 18 19 18 17 16 16 14 15 14 13 12 12 11 10 10 9 10 8 6 5 3 2 1 3 4 6 6 6 7 6 5 5 5 9 12 12 12 12 12
14 12 18 20 20 19 19 17 16 15 15 14 15 14 13 12 11 9 8 7 7 6 5 3 3 3 4 5 6 7 7 8 9 3 4 6 5 6 12 12 13 14 12
12 8 12 17 18 18 18 17 16 15 14 13 13 14 13 11 10 8 8 7 6 5 4 4 5 5 6 6 7 9 9 11 6 4 4 5 6 10 9 12 13 14 13
14 13 10 17 18 18 16 15 14 13 12 11 11 10 11 10 9 8 7 7 6 5 4 5 6 7 7 8 9 10 10 12 7 6 6 5 9 11 10 14 14 14 14
11 13 9 9 13 17 16 15 13 12 12 11 10 9 9 9 8 7 6 5 5 5 5 6 7 8 9 8 10 11 12 14 7 5 7 4 10 12 13 15 15 14 15
11 11 11 9 6 7 9 15 14 14 13 12 11 10 9 8 7 5 5 5 5 5 7 7 8 9 10 9 10 12 13 15 6 6 5 5 13 15 15 14 16 17 18
11 12 11 7 8 6 5 9 12 15 14 13 11 10 7 4 4 5 6 6 6 7 8 10 10 11 11 10 12 12 14 4 5 4 4 11 14 16 14 15 17 19 16
15 15 12 8 9 8 7 6 5 6 4 4 5 6 4 5 4 4 6 7 8 8 10 11 11 11 10 4 4 9 3 6 5 5 5 13 14 16 14 16 18 19 17
15 12 15 14 13 11 6 5 2 2 3 4 6 5 4 3 3 3 3 3 3 6 4 5 5 3 5 4 4 4 5 5 4 5 8 15 16 18 17 15 17 20 8
16 16 13 11 10 7 5 5 3 4 3 4 4 6 5 3 4 4 3 4 4 3 5 4 3 5 5 6 5 6 5 4 3 3 6 14 15 17 19 15 16 17 11
18 16 14 11 10 7 7 5 4 4 5 5 5 5 4 4 4 3 4 4 4 3 3 3 3 4 4 4 4 5 6 6 5 3 3 14 16 16 17 18 18 16 14
8 8 10 8 7 8 7 7 6 4 3 3 3 5 6 4 4 4 4 3 2 3 2 1 1 2 2 3 4 4 5 4 6 7 6 6 14 15 17 17 16 15 10
8 8 9 10 7 6 4 5 4 5 5 4 4 6 7 6 5 5 2 2 2 3 5 3 3 4 5 5 5 4 5 6 7 7 5 6 8 14 19 22 20 17 13
8 8 4 2 6 7 5 5 4 5 5 6 5 4 6 6 6 4 4 4 4 4 3 4 4 4 4 5 4 4 4 5 5 7 7 6 7 8 13 22 24 23 11
12 11 8 5 5 6 7 6 6 6 6 6 3 4 5 5 4 4 4 4 4 4 4 4 4 4 4 5 5 5 5 4 5 6 8 8 9 9 8 17 24 23 22
14 12 9 6 9 8 5 5 2 1 1 2 3 2 4 4 4 5 5 5 5 6 5 4 5 4 3 4 4 5 5 3 4 7 6 6 8 9 9 10 9 11 22
12 10 8 5 6 8 8 4 1 3 2 3 5 7 7 6 6 7 6 6 5 6 4 5 2 5 5 6 4 4 4 3 5 5 4 4 9 7 7 8 7 7 9
12 11 9 10 5 1 3 8 3 3 1 1 5 5 7 8 4 7 8 6 4 5 6 5 5 2 3 5 3 1 6 6 5 3 4 5 7 6 9 10 7 9 7
8 15 15 11 13 7 8 6 13 6 3 3 3 4 6 6 5 8 7 6 5 4 4 4 4 5 3 4 6 3 4 3 7 3 4 5 6 5 7 9 9 8 7
10 6 10 14 17 14 12 9 17 7 2 3 3 4 5 7 5 6 5 6 6 3 5 4 3 3 4 3 2 3 1 3 2 7 3 3 5 5 6 7 7 8 7
7 7 7 7 7 6 12 19 16 9 6 4 1 6 9 8 4 2 4 5 6 3 5 6 4 3 2 2 1 1 1 1 2 4 6 8 4 5 5 5 5 5 5
7 8 6 7 9 9 8 8 11 12 14 10 4 5 6 3 2 2 4 6 4 4 5 3 3 4 3 3 2 2 1 1 3 2 4 8 6 5 5 5 5 4 5
Wind_Direction
161 162 163 153 142 127 122 122 123 122 120 119 120 122 123 122 116 114 118 120 120 122 120 120 120 117 114 111 106 103 102 104 110 119 126 133 141 153 174 195 161 163 160
144 156 160 148 143 127 123 127 127 125 125 125 124 122 121 118 115 118 123 125 126 126 126 124 121 118 110 104 100 99 92 89 91 88 115 167 184 196 195 158 174 182 180
144 155 151 151 145 130 129 133 131 129 129 126 123 123 121 120 122 126 127 126 128 130 131 126 122 113 106 100 90 70 52 45 6 350 310 277 238 220 209 200 199 197 192
143 148 152 154 147 135 137 141 138 138 133 128 123 121 118 121 127 127 127 132 137 139 142 136 129 123 107 29 2 353 349 338 333 321 315 287 270 242 217 211 207 209 202
147 149 155 152 147 140 143 147 146 145 141 135 134 128 124 124 126 133 138 142 143 142 145 145 143 149 284 313 317 317 320 322 324 346 328 310 286 265 215 212 216 214 211
153 152 156 151 149 147 149 154 151 149 147 147 145 138 137 136 139 142 145 145 148 150 156 170 200 224 267 284 292 298 308 319 327 342 306 304 313 285 225 210 224 223 215
155 150 147 148 147 150 155 156 154 156 155 154 151 147 144 144 145 149 153 150 157 170 184 218 236 253 268 286 298 304 311 317 322 320 309 306 305 308 234 218 221 233 225
158 161 156 156 154 157 158 156 154 158 154 157 155 149 147 150 156 161 163 163 173 190 210 241 259 269 276 292 298 303 304 305 309 303 294 289 290 292 274 240 228 233 233
161 161 161 158 163 159 155 156 157 156 158 163 159 160 158 159 165 175 177 183 196 215 230 248 262 274 283 292 297 299 297 304 302 287 290 275 272 272 270 249 233 236 236
157 166 171 166 157 153 159 161 160 161 168 166 165 166 166 169 177 192 207 219 229 244 256 259 268 277 286 290 291 292 299 303 293 281 268 268 270 271 274 253 231 229 234
164 170 177 170 169 145 139 167 166 171 173 170 173 172 168 165 189 214 230 245 260 265 272 277 279 281 287 290 292 293 302 294 295 287 281 280 275 283 279 259 238 230 232
171 173 175 172 179 172 172 168 162 172 147 152 168 173 178 186 200 225 244 258 257 262 265 269 277 288 301 293 292 301 303 295 295 289 285 281 278 285 285 259 246 240 228
168 172 179 178 183 180 168 163 145 146 161 170 181 176 181 184 216 234 248 259 278 264 262 266 285 277 286 296 294 292 290 293 290 298 299 294 291 290 287 263 241 238 162
170 178 178 175 169 168 135 170 169 168 178 182 195 188 179 198 219 233 255 261 250 247 264 262 297 306 292 280 282 294 294 293 305 290 293 305 308 310 303 274 252 246 199
175 180 171 166 171 163 154 156 170 189 189 194 197 203 175 195 225 231 257 259 259 260 252 287 288 297 307 325 326 312 318 317 319 325 321 327 335 334 328 309 286 266 236
166 171 157 165 176 169 166 166 181 185 210 211 200 197 194 197 207 231 241 244 290 246 250 233 276 346 326 315 322 330 311 311 334 343 347 340 343 348 353 347 330 307 263
185 149 161 162 156 167 177 170 170 188 186 200 217 205 197 196 206 216 178 131 146 88 81 85 52 29 11 4 349 341 345 345 352 356 354 353 354 358 358 358 353 330 305
101 89 92 202 171 153 174 189 198 186 193 208 204 202 210 200 199 174 128 93 64 65 66 63 49 45 6 356 331 332 340 358 10 19 1 2 7 9 2 3 2 0 14
97 97 74 353 196 191 185 198 212 207 200 210 204 195 209 198 178 133 115 102 97 77 58 59 50 67 22 343 326 330 334 17 38 10 11 14 15 9 3 3 7 2 356
97 98 97 38 44 9 296 230 214 239 258 169 190 175 126 126 133 99 88 89 76 73 49 54 71 47 37 334 321 319 318 46 19 14 5 20 10 8 7 5 358 349 352
112 104 100 78 62 54 18 316 172 196 197 182 138 133 128 113 112 109 94 91 71 83 73 43 77 52 19 358 2 338 341 8 35 4 3 21 16 359 359 352 348 340 337
143 144 179 162 108 69 48 5 319 244 242 186 96 77 97 94 126 113 110 96 95 91 66 67 59 76 35 29 38 13 345 332 344 334 31 20 2 358 349 345 340 341 341
198 181 178 209 151 155 80 101 312 273 1 50 48 68 50 94 101 98 92 106 92 80 81 66 62 77 66 19 38 115 1 322 330 326 359 23 355 352 331 331 334 339 337
175 179 154 187 198 185 148 135 214 264 280 9 5 94 91 85 74 74 113 100 102 115 88 78 56 80 97 55 1 48 132 189 308 326 322 324 2 325 320 316 328 340 349
153 138 144 169 187 179 178 198 181 168 136 105 93 125 84 68 46 96 104 104 91 70 74 71 48 58 70 94 113 350 330 313 234 233 295 320 319 311 306 319 331 344 347
140 148 170 199 214 199 155 172 179 144 136 136 148 136 111 125 133 168 118 84 90 81 68 65 37 42 53 71 55 44 267 276 288 282 279 322 309 303 304 304 343 334 341